TimeMDT,TemperatureF,Dew PointF,Humidity,Sea Level PressureIn,VisibilityMPH,Wind Direction,Wind SpeedMPH,Gust SpeedMPH,PrecipitationIn,Events,Conditions,WindDirDegrees,DateUTC
12:53 AM,48.0,35.1,61,29.76,10.0,SSW,8.1,-,N/A,,Mostly Cloudy,200,2013-05-20 06:53:00
2:53 AM,44.1,32.0,63,29.78,10.0,SE,5.8,-,N/A,,Mostly Cloudy,140,2013-05-20 08:53:00
3:53 AM,45.0,33.1,63,29.79,10.0,ESE,5.8,-,N/A,,Mostly Cloudy,120,2013-05-20 09:53:00
4:53 AM,46.9,36.0,66,29.81,10.0,East,3.5,-,N/A,,Mostly Cloudy,80,2013-05-20 10:53:00
5:53 AM,46.0,39.9,79,29.84,10.0,NE,3.5,-,N/A,,Mostly Cloudy,50,2013-05-20 11:53:00
6:44 AM,46.4,41.0,81,29.97,10.0,Calm,Calm,-,N/A,,Overcast,0,2013-05-20 12:44:00
6:53 AM,46.9,41.0,80,29.86,10.0,Calm,Calm,-,N/A,,Overcast,0,2013-05-20 12:53:00
7:35 AM,46.4,42.8,87,29.98,6.0,Calm,Calm,-,0.01,Rain,Light Rain,0,2013-05-20 13:35:00
7:53 AM,46.0,43.0,89,29.91,6.0,Calm,Calm,-,0.02,Rain,Light Rain,0,2013-05-20 13:53:00
8:39 AM,46.4,42.8,87,29.98,10.0,Calm,Calm,-,0.01,Rain,Light Rain,0,2013-05-20 14:39:00
8:53 AM,46.9,44.1,90,29.90,10.0,South,4.6,-,0.01,Rain,Light Rain,190,2013-05-20 14:53:00
9:53 AM,53.1,44.1,71,29.87,10.0,Variable,5.8,-,0.00,,Scattered Clouds,0,2013-05-20 15:53:00
10:53 AM,57.0,37.9,49,29.82,10.0,WSW,5.8,-,N/A,,Scattered Clouds,240,2013-05-20 16:53:00
11:53 AM,59.0,33.1,38,29.82,10.0,NNW,5.8,-,N/A,,Mostly Cloudy,340,2013-05-20 17:53:00
12:53 PM,61.0,34.0,36,29.81,10.0,NNW,6.9,17.3,N/A,,Mostly Cloudy,340,2013-05-20 18:53:00
1:53 PM,59.0,37.0,44,29.86,10.0,Variable,5.8,-,0.00,,Mostly Cloudy,0,2013-05-20 19:53:00
2:53 PM,60.1,36.0,41,29.85,10.0,NW,8.1,-,N/A,,Mostly Cloudy,320,2013-05-20 20:53:00
3:22 PM,53.6,39.2,58,29.94,5.0,East,11.5,32.2,0.01,Rain-Thunderstorm,Light Thunderstorms and Rain,80,2013-05-20 21:22:00
3:53 PM,57.0,39.9,53,29.87,10.0,ENE,6.9,-,0.01,Thunderstorm,Thunderstorm,60,2013-05-20 21:53:00
4:14 PM,55.4,42.8,63,29.96,10.0,NNE,15.0,20.7,N/A,Thunderstorm,Thunderstorm,20,2013-05-20 22:14:00
4:53 PM,50.0,45.0,83,29.93,3.0,North,13.8,23.0,0.03,Rain-Thunderstorm,Thunderstorms and Rain,360,2013-05-20 22:53:00
5:23 PM,50.0,44.6,82,29.96,10.0,East,5.8,-,N/A,Rain,Light Rain,100,2013-05-20 23:23:00
5:53 PM,52.0,43.0,71,29.93,10.0,NE,6.9,-,N/A,,Mostly Cloudy,50,2013-05-20 23:53:00
6:53 PM,51.1,43.0,74,29.94,10.0,East,3.5,-,N/A,,Mostly Cloudy,90,2013-05-21 00:53:00
8:53 PM,48.9,42.1,77,29.99,10.0,SE,4.6,-,0.00,,Overcast,130,2013-05-21 02:53:00
9:53 PM,50.0,39.9,68,29.98,10.0,SE,6.9,-,N/A,,Mostly Cloudy,140,2013-05-21 03:53:00
10:53 PM,46.0,39.9,79,29.99,10.0,South,6.9,-,N/A,,Scattered Clouds,180,2013-05-21 04:53:00
11:53 PM,43.0,39.0,86,29.98,10.0,South,4.6,-,N/A,,Scattered Clouds,190,2013-05-21 05:53:00